Missoula, MT

12:04 AM MDT on April 24, 2017 (GMT -0600)
Missoula International

Weather History for KMSO - August, 2013

Change the Weather History Date:

Thursday, August 1, 2013

  Actual Average Record
Temperature  
Mean Temperature 65 °F 70 °F  
Max Temperature 75 °F 88 °F 101 °F (1971)
Min Temperature 55 °F 52 °F 30 °F (1901)
Degree Days  
Heating Degree Days 0 1  
Month to date heating degree days 0 1  
Since 1 June heating degree days 141 199  
Since 1 July heating degree days 0 39  
Cooling Degree Days 0 6  
Month to date cooling degree days 0 6  
Year to date cooling degree days 301 200  
Since 1 June cooling degree days 297 194  
Growing Degree Days 16 (Base 50)    
Moisture  
Dew Point 52 °F    
Average Humidity 60    
Maximum Humidity 90    
Minimum Humidity 29    
Precipitation  
Precipitation 0.28 in 0.03 in 0.74 in (1960)
Month to date precipitation 0.28 0.03  
Year to date precipitation 6.18 8.87  
Snow  
Snow 0.00 in - - ()
Month to date snowfall 0.0  
Year to date snowfall 27.4  
Since 1 July snowfall T  
Snow Depth 0.00 in    
Sea Level Pressure  
Sea Level Pressure 29.96 in    
Wind  
Wind Speed 8 mph (ESE)    
Max Wind Speed 22 mph    
Max Gust Speed 29 mph    
Visibility 9 miles    
Events Rain , Thunderstorm    
T = Trace of Precipitation, MM = Missing Value Source: NWS Daily Summary

Daily Weather History Graph

Daily Weather History Graph

Search for Another Location

Airport or City:

Trip Planner

Search our weather history database for the weather conditions in past years. The results will help you decide how hot, cold, wet, or windy it might be!

Date:

Astronomy

Aug. 01, 2013 Rise Set
Actual Time 6:16 AM MDT 9:08 PM MDT
Civil Twilight 5:41 AM MDT 9:43 PM MDT
Nautical Twilight 4:55 AM MDT 10:28 PM MDT
Astronomical Twilight 4:01 AM MDT 11:21 PM MDT
Moon 1:53 AM MDT (8/1) 5:23 PM MDT (8/1)
Length of Visible Light 16h 02m
Length of Day
14h 51m
Waning Crescent, 23% of the Moon is Illuminated
Aug 1
Waning Crescent
Aug 6
New
Aug 14
First Quarter
Aug 20
Full
Aug 28
Last Quarter

Hourly Weather History & Observations

Time (MDT) Temp. Dew Point Humidity Pressure Visibility Wind Dir Wind Speed Gust Speed Precip Events Conditions
12:53 AM 70.0 °F 41.0 °F 35% 29.91 in 10.0 mi SW 4.6 mph - N/A   Clear
1:53 AM 73.9 °F 39.9 °F 29% 29.95 in 10.0 mi NW 15.0 mph 21.9 mph N/A   Scattered Clouds
2:53 AM 72.0 °F 44.1 °F 37% 29.93 in 10.0 mi North 16.1 mph 25.3 mph N/A   Clear
3:53 AM 70.0 °F 44.1 °F 39% 29.92 in 10.0 mi South 8.1 mph - N/A   Clear
4:53 AM 66.9 °F 44.1 °F 44% 29.92 in 10.0 mi Calm Calm - N/A   Clear
5:53 AM 60.1 °F 43.0 °F 53% 29.93 in 10.0 mi NNW 4.6 mph - N/A   Clear
6:53 AM 60.1 °F 48.0 °F 64% 29.92 in 10.0 mi West 8.1 mph - N/A   Clear
7:53 AM 61.0 °F 50.0 °F 67% 29.96 in 10.0 mi Calm Calm - N/A   Scattered Clouds
8:53 AM 57.9 °F 54.0 °F 87% 29.98 in 10.0 mi North 6.9 mph - 0.01 in Rain Light Rain
9:53 AM 61.0 °F 55.0 °F 81% 29.96 in 10.0 mi SE 8.1 mph - 0.03 in Rain Light Rain
10:53 AM 61.0 °F 57.0 °F 87% 29.99 in 6.0 mi ESE 9.2 mph - 0.03 in Rain Light Rain
11:53 AM 60.1 °F 55.9 °F 86% 29.99 in 8.0 mi Calm Calm - 0.01 in Rain Light Rain
12:53 PM 62.1 °F 57.0 °F 84% 30.01 in 6.0 mi North 4.6 mph - 0.03 in Rain Light Rain
1:53 PM 63.0 °F 57.9 °F 84% 30.01 in 9.0 mi NNW 3.5 mph - 0.05 in Rain Light Rain
2:53 PM 61.0 °F 57.9 °F 90% 30.02 in 8.0 mi NW 6.9 mph - 0.00 in Rain Light Rain
3:53 PM 62.1 °F 57.0 °F 84% 30.03 in 8.0 mi Calm Calm - 0.03 in Rain Light Rain
4:30 PM 62.6 °F 59.0 °F 88% 30.02 in 10.0 mi ESE 9.2 mph - 0.02 in Rain Light Rain
4:53 PM 64.0 °F 59.0 °F 84% 29.97 in 10.0 mi South 11.5 mph - 0.02 in   Mostly Cloudy
5:53 PM 64.9 °F 60.1 °F 84% 29.93 in 10.0 mi South 12.7 mph 18.4 mph N/A   Partly Cloudy
6:53 PM 68.0 °F 55.9 °F 65% 29.93 in 10.0 mi South 6.9 mph - N/A   Partly Cloudy
7:53 PM 66.9 °F 54.0 °F 63% 29.91 in 10.0 mi ESE 15.0 mph 19.6 mph N/A   Clear
8:53 PM 66.0 °F 54.0 °F 65% 29.91 in 10.0 mi East 11.5 mph - N/A   Clear
9:53 PM 64.0 °F 54.0 °F 70% 29.93 in 10.0 mi ESE 8.1 mph - N/A   Clear
10:36 PM 62.6 °F 55.4 °F 77% 30.00 in 10.0 mi SE 6.9 mph - 0.00 in Rain , Thunderstorm Light Rain
10:53 PM 59.0 °F 53.1 °F 81% 29.99 in 7.0 mi WSW 20.7 mph 26.5 mph 0.00 in Rain , Thunderstorm Rain
11:17 PM 59.0 °F 51.8 °F 77% 30.04 in 10.0 mi East 10.4 mph - 0.04 in Rain Light Rain
11:53 PM 59.0 °F 48.9 °F 69% 29.99 in 10.0 mi NE 5.8 mph - 0.07 in   Overcast